Torna al catalogo

STARLINK-34424

AttivoComunicazioniVLEO
NORAD 64295·PAYLOAD·🇺🇸 United States

Lanciato Jun 8, 2025 da Vandenberg Space Force Base

Loading…

Prossimi Passaggi (prossime 24 ore)

TLE

AggiornatoSource: CelesTrak SupGP

Epoca: Sep 14, 2026, 20:42 UTC

1 64295C 25123E   26257.86298611  .00022509  00000+0  78315-3 0  2573
2 64295  70.0005  75.7557 0003293 273.8634 244.6274 15.29561601    12

Traccia STARLINK-34424 in tempo reale con AllMySat

Download on the App Store